Content
SEND FEEDBACK

Daily
Averages
Monthly
Summary
Germany

LUBECK, GERMANY


Home > Europe > Germany
Elevation: 56 feet     Latitude: 54 00N     Longitude: 011 12E

WEATHER
 
SELECT A DAY
Number of Records: 58,336;   Date Range: 7/3/96 - 7/27/14
 
SHARE

PRINT THIS DATA

[ ← Previous Day ]
WEATHER ALMANAC - MAY 17, 2013
[ Next Day → ]
[ °C ]   °F
Weather ElementAverageHighLow
Temperature70.9 °F78.8 °F (2:50 pm)59 °F (6:20 am)
Dewpoint58.4 °F60.8 °F (4:20 pm)53.6 °F (5:50 am)
Humidity65.8 %94 % (9:50 pm)47 % (3:50 pm)
Barometer29.52 in29.56 in (9:50 pm)29.47 in (5:50 am)
Wind Speed9.6 mph13.8 mph (2:50 pm)
Wind Gust26.5 mph (12:50 pm)
Weather ElementAverage
Visibility6.2 mi
Wind DirectionENE (78.3 °)

Weather ElementTotal
Precipitation---
Cooling Degree Days3.9 (Base 65)
Growing Degree Days18.9 (Base 50)
Averaged from 36 records on May 17, 2013
WEATHER CONDITIONS BREAKOUT
WIND DIRECTION BREAKOUT
WEATHER BY HOUR - MAY 17, 2013
[ °C ]   °F
Local TimeTemperatureDewpointHumidityBarometerVisibilityWind DirectionWind SpeedGust SpeedPrecipitationEventsConditions
5:50 AM60.8 °F53.6 °F77 %29.47 inEast (90°)8.1 mphClear
6:20 AM59.0 °F53.6 °F82 %29.47 inEast (80°)9.2 mphClear
6:50 AM62.6 °F55.4 °F77 %29.50 inEast (90°)8.1 mphClear
7:20 AM62.6 °F55.4 °F77 %29.50 inEast (90°)6.9 mphClear
7:50 AM64.4 °F55.4 °F73 %29.50 inEast (100°)8.1 mphClear
8:20 AM66.2 °F57.2 °F73 %29.50 inEast (90°)6.9 mphClear
8:50 AM69.8 °F59.0 °F68 %29.50 inESE (110°)9.2 mphClear
9:20 AM69.8 °F59.0 °F68 %29.50 inESE (110°)8.1 mphClear
9:50 AM71.6 °F57.2 °F60 %29.53 inESE (110°)11.5 mphClear
10:20 AM73.4 °F59.0 °F61 %29.53 inEast (100°)10.4 mphClear
10:50 AM71.6 °F57.2 °F60 %29.53 inEast (100°)10.4 mphClear
11:20 AM73.4 °F59.0 °F61 %29.53 inEast (90°)10.4 mphClear
11:50 AM73.4 °F57.2 °F57 %29.53 inEast (90°)11.5 mphClear
12:20 PM75.2 °F57.2 °F53 %29.53 inESE (110°)11.5 mphClear
12:50 PM75.2 °F59.0 °F57 %29.53 inEast (100°)9.2 mph26.5 mphClear
1:20 PM75.2 °F57.2 °F53 %29.53 in6.2 miEast (90°)10.4 mphScattered Clouds
1:50 PM75.2 °F57.2 °F53 %29.53 in6.2 miEast (90°)12.7 mphScattered Clouds
2:20 PM75.2 °F57.2 °F53 %29.53 in6.2 miEast (100°)12.7 mphScattered Clouds
2:50 PM78.8 °F59.0 °F51 %29.53 in6.2 miEast (80°)13.8 mphScattered Clouds
3:20 PM77.0 °F57.2 °F50 %29.53 in6.2 miEast (90°)12.7 mphScattered Clouds
3:50 PM78.8 °F57.2 °F47 %29.53 in6.2 miEast (100°)11.5 mphScattered Clouds
4:20 PM77.0 °F60.8 °F57 %29.53 in6.2 miEast (80°)11.5 mphPartly Cloudy
4:50 PM77.0 °F60.8 °F57 %29.53 in6.2 miEast (80°)11.5 mphPartly Cloudy
5:20 PM78.8 °F59.0 °F51 %29.53 in6.2 miEast (80°)11.5 mphScattered Clouds
5:50 PM77.0 °F59.0 °F54 %29.53 inEast (90°)11.5 mphClear
5:54 PM77.0 °F59.0 °F54 %29.53 in6.2 miEast (80°)11.5 mphScattered Clouds
6:20 PM75.2 °F60.8 °F61 %29.53 in6.2 miNE (50°)9.2 mphScattered Clouds
6:50 PM73.4 °F60.8 °F65 %29.53 in6.2 miNE (40°)8.1 mphScattered Clouds
7:20 PM71.6 °F60.8 °F69 %29.53 in6.2 miNE (40°)9.2 mphScattered Clouds
7:33 PM71.6 °F60.8 °F69 %29.53 in6.2 miNE (40°)9.2 mphThunderstormScattered Clouds
7:50 PM69.8 °F60.8 °F73 %29.53 in6.2 miNE (50°)11.5 mphScattered Clouds
8:20 PM66.2 °F60.8 °F83 %29.53 in6.2 miNE (50°)6.9 mphScattered Clouds
8:50 PM64.4 °F60.8 °F88 %29.53 in6.2 miNE (40°)9.2 mphMostly Cloudy
9:20 PM62.6 °F59.0 °F88 %29.53 in6.2 miNE (40°)6.9 mphMostly Cloudy
9:50 PM60.8 °F59.0 °F94 %29.56 in6.2 miNE (50°)4.6 mphScattered Clouds
10:20 PM60.8 °F59.0 °F94 %29.56 in6.2 miCalmMostly Cloudy
Hourly data recorded from EDHL, located miles away from Lubeck, Germany







STORIES FROM OUR PARTNERS